Weather in Punta-Arenas

Chile     53°09′07″S   70°53′52″W
temp.,
°C
wind,
m/s
gust,
m/s
humid.,
%
clouds,
%
prec.,
mm/h
press.,
hPa
HPBL,
m
22 october, fri
fri2200:00+4w71570100 0.0 10121197
03:00+3wnw41173100 0.0 1009688
06:00+4nw92069100 0.0 10061380
09:00+4nw101980100 0.0 10011376
12:00+4nw102185100 0.3 9951466
15:00+7wnw12266731 0.4 9881628
18:00+5w9228259 0.9 9861803
21:00+2w9209396 1.9 9881765
23 october, sat
sat2300:00+1wsw1223713 0.8 9911891
03:000wsw1122718 0.8 9941846
06:00+1w91976100 0.0 9951614
09:00+4wnw112261100 0.1 9932308
12:00+3wnw102189100 2.4 9881665
15:00+3w12238252 5.8 9842091
18:00+2wsw1122708 0.3 9882197
21:000wsw9207316 0.3 9921979
24 october, sun
sun2400:000w71772100 0.0 9911609
03:000nw41385100 0.1 9881149
06:00−1nnw2294100 0.1 98274
09:00+2n61082100 0.2 977794
12:00+2nnw5129578 3.1 973675
15:00+4w101975100 3.6 9731994
18:00+3w1122726 0.4 9752182
21:00−1w10217729 0.4 9781973
25 october, mon
mon2500:000wsw9198450 1.4 9811783
03:00−1wsw818693 1.4 9841769
06:00−1w818695 0.0 9861644
09:00+2wsw815738 0.1 9891768
12:00+3wsw8145969 0.3 9912042
15:00+4wsw7136066 0.4 9911804
18:00+5w6126649 0.1 9901531
21:00+2wnw41180100 0.1 990670
26 october, tue
tue2600:000nw2290100 0.0 98859
03:00+2nnw51397100 0.4 985940
06:00+2nnw41193100 1.2 983592
09:00+3nw41091100 1.3 985589
12:00+4wnw7189194 0.3 9861312
15:00+4wnw81794100 2.0 9901542
18:00+5w8167367 0.4 9961772
21:00+3w716786 0.4 10001273